Location: Kaseke
(18.0171°S, 31.0526°E)
Time: 01:02:58
(UTC+00:00)

Daily predictions for brighter satellites

Satellite Brightness Start Highest point End
(mag) Time Altitude Azimuth Time Altitude Azimuth Time Altitude Azimuth
Atlas Centaur 2 4.0 01:49:58 35° SSE 01:49:58 35° SSE 01:55:15 10° SE
Cosmos 2227 Rocket 4.3 02:03:03 14° SSE 02:06:18 21° ESE 02:10:32 10° ENE
Cosmos 1980 Rocket 2.7 02:02:35 10° N 02:08:12 56° E 02:13:35 10° SSE
H-2A R/B 4.2 02:14:17 10° NE 02:16:58 29° ENE 02:16:58 29° ENE
Hubble Space Telescope 2.6 02:21:18 27° ESE 02:21:18 27° ESE 02:23:18 10° ESE
Cosmos 2279 Rocket 4.0 02:20:40 68° NNW 02:20:40 68° NNW 02:26:07 10° N
Maqsat-H 4.0 02:16:25 29° WNW 02:21:52 42° NNW 02:26:52 10° ENE
Cosmos 2219 3.8 02:24:36 34° SSE 02:26:48 54° ESE 02:32:21 10° NNE
Centaur D-1AR AC-48 2.7 02:26:59 56° WNW 02:27:57 63° NNW 02:31:54 10° ENE
Spot 2 4.5 02:25:17 10° NNE 02:30:00 75° N 02:30:00 75° N
Delta 142 4.3 02:33:54 66° WNW 02:34:41 75° NNW 02:42:11 10° ENE
BREEZE-M DEB (TANK) 4.2 02:37:32 54° WSW 02:38:54 69° NW 02:56:08 10° NNE
Centaur Rocket 4.5 02:37:44 50° W 02:39:57 86° N 03:00:44 10° E
Cosmos 1455 Rocket 4.1 02:42:19 13° SSE 02:45:58 44° E 02:50:05 10° NNE
Cosmos 2195 Rocket 4.5 02:42:44 10° N 02:49:02 86° E 02:55:26 10° S
Cosmos 1763 Rocket 3.5 02:44:03 10° NNW 02:49:16 58° WSW 02:54:30 10° S
Meteor 1-21 4.4 02:51:00 10° NNW 02:56:34 47° W 03:02:08 10° S
Cosmos 1733 4.3 02:58:12 31° NNW 02:58:12 31° NNW 03:00:24 10° NNW
PSLV R/B 3.7 02:57:11 10° N 03:01:11 73° WNW 03:02:20 45° SSW
Delta 7925 Rocket 4.2 03:01:33 28° SSW 03:02:15 29° S 03:06:24 10° ESE
Lacrosse 4 Rocket 3.9 03:05:04 11° NW 03:05:04 11° NW 03:05:20 10° NW
Cosmos 1570 Rocket 3.9 02:57:18 10° NNW 03:02:37 85° WSW 03:08:01 10° SSE
CREW DRAGON DEMO-1 DEB 3.4 03:01:43 37° N 03:02:38 56° NE 03:05:41 10° SE
GPS 2-18 Rocket1 3.2 03:02:37 53° SSW 03:02:57 55° S 03:06:51 10° ESE
Cosmos 2297 Rocket 2.1 03:02:03 23° SSW 03:05:44 75° WNW 03:11:22 10° N
Cosmos 1025 Rocket 2.8 03:02:03 10° NNW 03:06:17 69° W 03:10:34 10° S
ADEOS Rocket 3.9 03:01:29 10° SSE 03:06:50 46° ENE 03:12:29 10° N
EPKM 3.3 03:07:02 29° SSW 03:07:45 31° S 03:14:07 10° ESE
Cosmos 2026 Rocket 3.8 03:02:34 10° N 03:08:37 75° W 03:14:46 10° S
ALOS 4.2 03:06:07 10° NW 03:07:14 14° NW 03:07:14 14° NW
Cosmos 2322 Rocket 3.5 03:06:34 10° N 03:11:53 42° ENE 03:17:14 10° SE
Cosmos 1470 2.8 03:11:14 10° S 03:15:08 80° E 03:19:00 10° N
Delta 2 Rocket 4.3 03:10:52 26° WSW 03:15:53 84° NNW 03:22:44 10° ENE
Cosmos 841 Rocket 3.4 03:11:37 10° NNW 03:16:47 64° WSW 03:22:02 10° S
Cosmos 540 Rocket 3.4 03:11:50 10° NNW 03:16:57 67° WSW 03:22:08 10° S
CZ-4B DEB 4.2 03:13:21 10° N 03:18:44 63° WNW 03:24:13 10° SSW
Cosmos 1092 Rocket 4.4 03:13:50 10° NNW 03:19:35 40° W 03:25:22 10° SSW
Aurora 2 Rocket 4.2 03:14:58 23° WSW 03:21:01 60° S 03:27:42 10° E
Cosmos 1536 Rocket 3.6 03:16:56 10° NNW 03:21:10 55° W 03:25:26 10° S
COSMO-SKYMED 1 4.3 03:19:30 10° SSE 03:23:31 35° E 03:27:29 10° NNE
SJ 16-02 1.9 03:20:27 10° S 03:24:50 61° ESE 03:29:11 10° NNE
Cosmos 1818 3.8 03:20:42 10° NNW 03:26:03 72° ENE 03:31:27 10° SSE
Cosmos 1689 Rocket 2.1 03:24:57 10° S 03:27:56 56° WSW 03:30:52 10° NNW
Cosmos 1544 Rocket 3.4 03:24:30 10° S 03:28:51 71° W 03:33:09 10° N
Cosmos 1707 3.8 03:26:33 10° NW 03:29:43 24° W 03:30:40 21° WSW
CZ-4B R/B 3.7 03:32:39 11° WNW 03:32:39 11° WNW 03:32:48 10° WNW
NOAA 6 4.1 03:26:56 10° N 03:31:56 56° WNW 03:37:00 10° SSW
Cosmos 1655 Rocket 4.3 03:30:37 10° N 03:36:50 71° E 03:43:05 10° S
NOSS 3-1 (C) 4.3 03:33:12 10° S 03:38:26 40° ESE 03:43:14 10° NE
Atlas Centaur 2 3.9 03:32:34 15° SW 03:38:34 33° S 03:45:13 10° ESE
In-Cosmos 22 4.4 03:35:15 10° NNW 03:40:40 50° W 03:46:01 10° S
Cosmos 1953 2.8 03:37:40 10° S 03:41:39 62° E 03:45:34 10° NNE
ARIANE 5 R/B 4.1 03:37:46 10° NW 03:42:10 34° NNE 04:02:11 10° E
Cosmos 2360 Rocket 3.8 03:38:51 10° N 03:44:04 40° ENE 03:49:19 10° SE
Okean O Rocket 1.7 03:40:52 10° N 03:45:11 56° W 03:49:35 10° SSW
GPS 2-15 Rocket1 3.6 03:43:07 13° W 03:47:19 52° NNW 03:51:55 10° ENE
ATLAS 5 CENTAUR R/B 2.8 03:40:35 10° NW 03:47:43 66° WSW 03:54:48 10° SSE
NOAA 12 4.4 03:42:53 10° NNE 03:48:06 74° ESE 03:53:22 10° S
Cosmos 1626 4.0 03:46:00 10° NNE 03:49:22 34° E 03:52:47 10° SSE
SMAP 3.0 03:45:16 10° N 03:49:55 77° WNW 03:54:36 10° SSW
Cosmos 2227 Rocket 3.0 03:45:17 10° SW 03:50:12 31° WNW 03:55:06 10° NNW
ASTEX 1 4.0 03:46:25 10° NNE 03:51:13 62° E 03:56:05 10° S
Cosmos 2266 Rocket 4.5 03:45:31 10° N 03:51:50 69° E 03:58:07 10° S
Cosmos 1980 Rocket 3.8 03:50:38 10° W 03:52:12 11° WSW 03:53:56 10° SW
CZ-3 R/B 3.4 03:40:04 10° NW 03:52:25 34° NNE 03:57:01 10° E
Helios 1A Rocket 4.1 03:49:00 10° NNE 03:52:51 46° ESE 03:56:46 10° S
Cosmos 2082 3.8 03:48:02 10° SSW 03:53:41 60° WNW 03:59:15 10° N
Delta 168 3.8 03:51:19 10° W 03:56:39 39° SSW 04:00:25 10° ESE
USA 229 DEB 4.2 03:50:31 10° SSW 03:56:57 56° ESE 04:03:12 10° NE
USA 229 4.3 03:50:39 10° SSW 03:57:04 55° ESE 04:03:16 10° NE
CORIOLIS 4.2 03:52:10 10° NNE 03:57:36 85° WNW 04:03:04 10° SSW
Hubble Space Telescope 1.8 03:56:49 10° WSW 04:00:29 30° SSW 04:04:11 10° SE
YAOGAN 6 2.8 04:00:38 10° N 04:04:07 48° W 04:07:37 10° SSW
Envisat 3.3 03:59:20 10° N 04:04:13 49° W 04:09:10 10° SSW
Chandra Rocket (1) 3.7 04:03:49 10° W 04:10:37 28° NW 04:13:41 10° NNE
